カタログに戻る

ONEWEB-0659

運用中通信PO
NORAD 54678·PAYLOAD·🇬🇧 United Kingdom

打ち上げ Dec 8, 2022 から Cape Canaveral Space Force Station

Loading…

次のパス (今後24時間)

TLE

最新Source: CelesTrak SupGP

元期: Sep 14, 2026, 23:02 UTC

1 54678C 22166AN  26257.96022405 -.00002901  00000+0 -70318-2 0  2578
2 54678  87.9272 226.1157 0002068  83.8164 352.6929 13.21830705    14

AllMySatでONEWEB-0659をリアルタイム追跡

Download on the App Store